NOAA-17
1 27453U 02032A 08137.85435538 .00000168 00000-0 91842-4 0 09283
2 27453 098.5354 203.3853 0011683 194.2435 165.8411 14.23973719306346
NOAA-18
1 28654U 05018A 08137.85562989 -.00000133 00000-0 -49205-4 0 04303
2 28654 098.8653 079.1726 0015250 044.7592 315.4802 14.11161896154058
HUBBLE
1 20580U 90037B 08137.41467609 .00000255 00000-0 68420-5 0 01416
2 20580 028.4684 170.4532 0003659 047.7326 312.3574 15.00377619790205
UARS
1 21701U 91063B 08137.91635308 .00005557 00000-0 84695-4 0 03851
2 21701 056.9731 297.8103 0090042 119.2544 241.7559 15.51756597917646
PO-34
1 25520U 98064B 08137.95121538 .00000359 00000-0 79294-5 0 00011
2 25520 028.4592 027.8970 0005224 302.0861 057.9224 15.17189318528415
ISS
1 25544U 98067A 08138.85293981 .00007470 00000-0 50384-4 0 4969
2 25544 051.6402 172.7560 0005720 220.4168 118.8720 15.76327413543733
OO-38
1 26063U 00004C 08138.70024501 -.00000030 00000-0 10073-4 0 2127
2 26063 100.1918 207.7967 0036602 295.8674 063.8736 14.35835088435195
UWE-1
1 28892U 05043C 08137.75607733 .00000063 00000-0 22775-4 0 00490
2 28892 098.0989 032.1428 0018008 144.5573 215.6854 14.59626983136015
CO-58
1 28895U 05043F 08137.72486058 -.00000021 00000-0 52137-5 0 227
2 28895 098.1026 032.4582 0018402 145.0158 215.2275 14.59666956135890
NCUBE2
1 28897U 05043H 08137.28180856 .00000122 00000-0 35028-4 0 5525
2 28897 098.0998 031.9577 0017581 146.7840 213.4465 14.59837604128118
FCAL
1 29667U 06055J 08138.39402321 .00428128 12069-4 11087-3 0 9560
2 29667 051.6157 109.9698 0001052 293.8925 066.2226 16.27993597 81613
FALCON
1 30776U 07006E 08137.95469598 .00000290 00000-0 24202-4 0 03157
2 30776 035.4353 342.9094 0000504 025.9403 334.1338 15.02982498065443
MAST
1 31126U 07012K 08138.60601815 -.00000037 00000-0 20688-5 0 3286
2 31126 098.0399 204.2587 0095850 066.9638 294.1650 14.53422597 57579
CAPE1
1 31130U 07012P 08138.18153110 .00000129 00000-0 40344-4 0 3083
2 31130 098.0418 202.9333 0103984 070.8159 290.4250 14.51962066 57225
CUTE1-7
1 32785U 08021C 08138.72348253 -.00000012 00000-0 53595-5 0 526
2 32785 097.9942 198.7150 0014115 231.5844 128.4100 14.81355211 2893
COMPASS
1 32787U 08021E 08136.83161411 .00000158 00000-0 27104-4 0 00501
2 32787 097.9906 196.8149 0014852 240.9341 119.0377 14.81402909002615
AAUSAT2
1 32788U 08021F 08138.85653900 .00000150 00000-0 25990-4 0 441
2 32788 097.9914 198.8372 0014372 231.3827 128.6096 14.81510869 2917
DELFIC3
1 32789U 08021G 08137.91270232 .00000211 00000-0 33895-4 0 00543
2 32789 097.9933 197.8998 0014765 235.7884 124.1931 14.81377044002778
SEEDS
1 32791U 08021J 08138.18427642 .00000140 00000-0 24832-4 0 390
2 32791 097.9948 198.1686 0015206 232.7516 127.2307 14.81264750 2786
CANX-2
1 32797U 08021L 08136.96730692 -.00000144 00000-0 -11425-4 0 00314
2 32797 097.9945 196.9610 0014327 238.4303 121.5499 14.81350511001310
